Williston, ND

10:18 PM CST on January 19, 2018 (GMT -0600)
Sloulin International

Weather History for KISN - October, 2014

Change the Weather History Date:

Friday, October 17, 2014

  Actual Average Record
Temperature  
Mean Temperature 43 °F 43 °F  
Max Temperature 55 °F 56 °F 83 °F (1914)
Min Temperature 31 °F 30 °F 11 °F (1919)
Degree Days  
Heating Degree Days 22 22  
Month to date heating degree days 302 319  
Since 1 July heating degree days 609 665  
Cooling Degree Days 0 0  
Month to date cooling degree days 0 0  
Year to date cooling degree days 425 455  
Moisture  
Dew Point 36 °F    
Average Humidity 73    
Maximum Humidity 89    
Minimum Humidity 56    
Precipitation  
Precipitation 0.00 in 0.03 in 0.82 in (1938)
Month to date precipitation 0.17 0.53  
Year to date precipitation 9.95 12.71  
Snow  
Snow 0.00 in - - ()
Snow Depth 0.00 in    
Sea Level Pressure  
Sea Level Pressure 30.19 in    
Wind  
Wind Speed 6 mph (North)    
Max Wind Speed 28 mph    
Max Gust Speed 36 mph    
Visibility 10 miles    
Events      
T = Trace of Precipitation, MM = Missing Value Source: NWS Daily Summary

Daily Weather History Graph

Daily Weather History Graph

Search for Another Location

Airport or City:

Trip Planner

Search our weather history database for the weather conditions in past years. The results will help you decide how hot, cold, wet, or windy it might be!

Date:

Astronomy

Oct. 17, 2014 Rise Set
Actual Time 8:17 AM CDT 7:01 PM CDT
Civil Twilight 7:45 AM CDT 7:33 PM CDT
Nautical Twilight 7:09 AM CDT 8:09 PM CDT
Astronomical Twilight 6:33 AM CDT 8:45 PM CDT
Moon 1:58 AM CDT (10/17) 4:13 PM CDT (10/17)
Length of Visible Light 11h 47m
Length of Day
10h 44m
Waning Crescent, 32% of the Moon is Illuminated
Oct 17
Waning Crescent
Oct 23
New
Oct 30
First Quarter
Nov 6
Full
Nov 14
Last Quarter

Hourly Weather History & Observations

Time (CDT) Temp. Windchill Dew Point Humidity Pressure Visibility Wind Dir Wind Speed Gust Speed Precip Events Conditions
12:52 AM 46.9 °F - 39.9 °F 77% 30.12 in 10.0 mi NW 9.2 mph - N/A   Overcast
1:35 AM 46.9 °F - 37.0 °F 68% 30.09 in 10.0 mi North 15.0 mph - N/A   Overcast
1:52 AM 46.9 °F - 37.9 °F 71% 30.12 in 10.0 mi North 9.2 mph - N/A   Overcast
2:40 AM 42.1 °F 37.7 °F 37.9 °F 85% 30.10 in 10.0 mi NNW 6.9 mph - N/A   Scattered Clouds
2:52 AM 43.0 °F 37.7 °F 37.9 °F 82% 30.13 in 10.0 mi North 9.2 mph - N/A   Mostly Cloudy
2:57 AM 42.1 °F 36.6 °F 37.9 °F 85% 30.10 in 10.0 mi North 9.2 mph - N/A   Scattered Clouds
3:50 AM 39.2 °F 32.5 °F 35.6 °F 87% 30.10 in 10.0 mi North 10.4 mph - N/A   Mostly Cloudy
3:52 AM 39.2 °F 32.5 °F 35.6 °F 87% 30.10 in 10.0 mi North 10.4 mph - N/A   Scattered Clouds
4:10 AM 39.0 °F 33.4 °F 36.0 °F 89% 30.11 in 10.0 mi North 8.1 mph - N/A   Mostly Cloudy
4:13 AM - - - N/A% - - North 10.4 mph - N/A   Scattered Clouds
4:20 AM 37.9 °F 30.9 °F 35.1 °F 89% 30.11 in 10.0 mi North 10.4 mph - N/A   Scattered Clouds
4:35 AM 39.0 °F 33.4 °F 35.1 °F 86% 30.11 in 10.0 mi North 8.1 mph - N/A   Mostly Cloudy
4:52 AM 39.9 °F 34.5 °F 36.0 °F 86% 30.16 in 10.0 mi NNW 8.1 mph - N/A   Overcast
5:52 AM 41.0 °F 35.8 °F 37.0 °F 86% 30.17 in 10.0 mi NNW 8.1 mph - N/A   Overcast
6:52 AM 42.1 °F 37.7 °F 37.9 °F 85% 30.19 in 10.0 mi NNW 6.9 mph - N/A   Overcast
7:52 AM 42.1 °F 37.7 °F 37.0 °F 82% 30.21 in 10.0 mi NNW 6.9 mph - N/A   Overcast
8:52 AM 42.1 °F 39.2 °F 37.0 °F 82% 30.24 in 10.0 mi NNW 4.6 mph - N/A   Overcast
9:52 AM 43.0 °F 38.8 °F 37.0 °F 80% 30.25 in 10.0 mi NNW 6.9 mph - N/A   Overcast
10:52 AM 42.1 °F 36.1 °F 36.0 °F 79% 30.27 in 10.0 mi NNE 10.4 mph - N/A   Overcast
11:52 AM 43.0 °F 40.3 °F 35.1 °F 74% 30.27 in 10.0 mi North 4.6 mph - N/A   Overcast
12:26 PM 43.0 °F 38.2 °F 35.1 °F 74% 30.22 in 10.0 mi North 8.1 mph - N/A   Overcast
12:52 PM 43.0 °F 39.5 °F 35.1 °F 74% 30.27 in 10.0 mi NE 5.8 mph - N/A   Overcast
1:52 PM 46.0 °F 44.8 °F 34.0 °F 63% 30.25 in 10.0 mi Variable 3.5 mph - N/A   Overcast
2:10 PM 45.0 °F - 35.1 °F 68% 30.20 in 10.0 mi Calm Calm - N/A   Scattered Clouds
2:52 PM 46.9 °F - 34.0 °F 61% 30.24 in 10.0 mi NW 3.5 mph - N/A   Clear
3:52 PM 48.0 °F - 34.0 °F 58% 30.24 in 10.0 mi Calm Calm - N/A   Clear
4:52 PM 50.0 °F - 35.1 °F 57% 30.22 in 10.0 mi East 3.5 mph - N/A   Clear
5:52 PM 50.0 °F - 35.1 °F 57% 30.21 in 10.0 mi Calm Calm - N/A   Clear
6:52 PM 46.9 °F - 34.0 °F 61% 30.21 in 10.0 mi South 5.8 mph - N/A   Clear
7:52 PM 42.1 °F - 34.0 °F 73% 30.22 in 10.0 mi Calm Calm - N/A   Clear
8:52 PM 34.0 °F - 30.9 °F 89% 30.23 in 10.0 mi Calm Calm - N/A   Clear
9:52 PM 37.9 °F 35.5 °F 33.1 °F 83% 30.23 in 10.0 mi East 3.5 mph - N/A   Clear
10:52 PM 39.0 °F 33.4 °F 36.0 °F 89% 30.23 in 10.0 mi SE 8.1 mph - N/A   Clear
11:52 PM 39.9 °F 32.9 °F 36.0 °F 86% 30.21 in 10.0 mi SE 11.5 mph - N/A   Clear